Flag for Russia Weather past 2 weeks in Astrakhan, Russia

Now
68 °F

Sunny.


Feels Like: 68 °F
Forecast: 56 / 84 °F
Wind: 3 mph from Southeast

Location: Astrakhan

Current Time: May 23, 2015 at 8:28:13 PM

Latest Report: May 23, 2015 at 8:00 PM


Visibility: 10 mi

Pressure: 30.09 "Hg

Humidity: 43%

Dew point: 45 °F

Location of AstrakhanLocation

Historic Weather in Astrakhan — Graph

°F

Astrakhan temperature yesterday

Maximum temperature yesterday: 82 °F (at 3:00 PM)
Minimum temperature yesterday: 54 °F (at 3:00 AM)
Average temperature yesterday: 69 °F

Past Weeks' High & Low Weather Summary

 TemperatureHumidityPressure
High84 °F (May 23, 12:30 PM)100% (May 14, 4:30 AM)30.15 "Hg (May 14, 4:30 AM)
Low45 °F (May 20, 3:30 AM)15% (May 20, 4:00 PM)29.77 "Hg (May 8, 7:00 PM)
Average63 °F57%29.96 "Hg
* Reported May 8 7:00 PM — May 23 7:00 PM, Astrakhan, Weather by CustomWeather, © 2015

Note: Actual official high and low records may vary slightly from our data, if they occured in-between our weather recording intervals... More about our weather records

Advertising

Astrakhan weather history for previous 24 hours

 ConditionsComfort  
Time TempWeatherWind HumidityBarometerVisibility
7:00 PM
Sat, May 23
73 °FSunny.6 mph33%30.09 "Hg10 mi
6:30 PM75 °FSunny.8 mph31%30.09 "Hg10 mi
6:00 PM77 °FSunny.13 mph26%30.07 "Hg10 mi
5:30 PM79 °FSunny.13 mph21%30.07 "Hg10 mi
5:00 PM81 °FSunny.15 mph21%30.07 "Hg10 mi
4:30 PM81 °FSunny.15 mph20%30.09 "Hg10 mi
4:00 PM81 °FSunny.15 mph20%30.09 "Hg10 mi
3:30 PM81 °FSunny.15 mph18%30.09 "Hg10 mi
3:00 PM82 °FPassing clouds.17 mph19%30.09 "HgN/A
2:30 PM82 °FSunny.15 mph19%30.09 "Hg10 mi
2:00 PM82 °FSunny.15 mph19%30.09 "Hg10 mi
1:30 PM82 °FPassing clouds.13 mph19%30.09 "HgN/A
1:00 PM82 °FPassing clouds.13 mph19%30.09 "HgN/A
12:30 PM84 °FPassing clouds.15 mph16%30.09 "HgN/A
12:00 PM82 °FPassing clouds.13 mph19%30.12 "HgN/A
11:30 AM82 °FPassing clouds.10 mph17%30.12 "HgN/A
11:00 AM82 °FSunny.13 mph17%30.12 "Hg10 mi
10:30 AM82 °FPassing clouds.13 mph17%30.12 "HgN/A
10:00 AM81 °FPassing clouds.15 mph18%30.12 "HgN/A
9:30 AM81 °FPassing clouds.13 mph21%30.12 "HgN/A
9:00 AM79 °FPassing clouds.6 mph23%30.12 "HgN/A
8:30 AM77 °FSunny.8 mph28%30.12 "Hg10 mi
8:00 AM75 °FSunny.6 mph34%30.12 "Hg10 mi
7:30 AM73 °FPassing clouds.6 mph36%30.12 "HgN/A
7:00 AM72 °FSunny.3 mph44%30.12 "Hg10 mi
6:30 AM68 °FSunny.3 mph56%30.12 "Hg10 mi
6:00 AM63 °FSunny.No wind73%30.12 "Hg10 mi
5:30 AM57 °FSunny.1 mph82%30.12 "Hg10 mi
5:00 AM52 °FClear.1 mph82%30.15 "Hg10 mi
4:30 AM54 °FClear.No wind88%30.12 "Hg10 mi
4:00 AM52 °FClear.1 mph88%30.12 "Hg10 mi
3:30 AM52 °FClear.1 mph82%30.12 "Hg10 mi
3:00 AM52 °FClear.No wind82%30.15 "Hg10 mi
2:30 AM54 °FClear.No wind88%30.15 "Hg10 mi
2:00 AM55 °FClear.1 mph88%30.15 "Hg10 mi
1:30 AM57 °FClear.No wind82%30.15 "Hg10 mi
1:00 AM55 °FClear.1 mph82%30.15 "Hg10 mi
12:30 AM57 °FClear.1 mph82%30.15 "Hg10 mi
12:00 AM59 °FClear.3 mph82%30.15 "Hg10 mi
11:30 PM
Fri, May 22
57 °FClear.1 mph82%30.15 "Hg10 mi
11:00 PM61 °FClear.No wind72%30.15 "Hg10 mi
10:30 PM61 °FClear.3 mph72%30.15 "Hg10 mi
10:00 PM61 °FClear.3 mph72%30.15 "Hg10 mi
9:30 PM63 °FClear.3 mph68%30.15 "Hg10 mi
9:00 PM64 °FClear.6 mph64%30.15 "Hg10 mi
8:30 PM64 °FClear.3 mph60%30.12 "Hg10 mi
8:00 PM68 °FSunny.6 mph56%30.12 "Hg10 mi
Weather by CustomWeather, © 2015

See weather overviewHow to use our weather pages